Content
SEND FEEDBACK

Daily
Averages
Monthly
Summary
United States of America

BELLEVILLE, MICHIGAN


Home > North America > United States > Michigan
Elevation: 780 feet     Latitude: 42 14N     Longitude: 083 32W

WEATHER
 
SELECT A DAY
Number of Records: 205,963;   Date Range: 1/1/95 - 10/30/14
 
SHARE

PRINT THIS DATA

[ ← Previous Day ]
WEATHER ALMANAC - MARCH 29, 2013
[ Next Day → ]
[ °C ]   °F
Weather ElementAverageHighLow
Temperature42.6 °F54 °F (3:53 pm)30.9 °F (6:53 am)
Dewpoint19.5 °F23 °F (1:53 am)17.1 °F (2:53 pm)
Humidity42.7 %64 % (5:53 am)23 % (3:53 pm)
Barometer30.25 in30.29 in (7:53 am)30.20 in (4:53 pm)
Wind Speed5.3 mph10.4 mph (9:53 am)
Weather ElementAverage
Visibility10 mi
Wind DirectionSW (227.8 °)

Weather ElementTotal
Precipitation---
Heating Degree Days22.6 (Base 65)
Averaged from 23 records on March 29, 2013
WEATHER CONDITIONS BREAKOUT
WIND DIRECTION BREAKOUT
WEATHER BY HOUR - MARCH 29, 2013
[ °C ]   °F
Local TimeTemperatureDewpointHumidityBarometerVisibilityWind DirectionWind SpeedGust SpeedPrecipitationEventsConditions
1:53 AM37.0 °F23.0 °F57 %30.27 in10.0 miNW (310°)9.2 mphClear
2:53 AM35.1 °F21.9 °F59 %30.27 in10.0 miWNW (300°)8.1 mphClear
3:53 AM33.1 °F21.0 °F61 %30.27 in10.0 miNW (320°)8.1 mphClear
4:53 AM33.1 °F21.0 °F61 %30.27 in10.0 miWNW (300°)6.9 mphClear
5:53 AM32.0 °F21.0 °F64 %30.27 in10.0 miWNW (300°)6.9 mphClear
6:53 AM30.9 °F19.9 °F64 %30.28 in10.0 miWNW (300°)6.9 mphClear
7:53 AM30.9 °F19.9 °F64 %30.29 in10.0 miNW (310°)5.8 mphClear
8:53 AM37.9 °F21.9 °F53 %30.29 in10.0 miNW (320°)6.9 mphClear
9:53 AM42.1 °F19.9 °F41 %30.29 in10.0 miNW (320°)10.4 mphClear
10:53 AM45.0 °F19.0 °F36 %30.28 in10.0 miWest (280°)8.1 mphClear
11:53 AM48.9 °F19.0 °F31 %30.28 in10.0 miWest (270°)6.9 mphClear
12:53 PM50.0 °F18.0 °F28 %30.27 in10.0 miCalmClear
1:53 PM51.1 °F18.0 °F27 %30.25 in10.0 miWNW (300°)4.6 mphClear
2:53 PM53.1 °F17.1 °F24 %30.23 in10.0 miCalmClear
3:53 PM54.0 °F17.1 °F23 %30.21 in10.0 miVariable4.6 mphClear
4:53 PM53.1 °F17.1 °F24 %30.20 in10.0 miVariable3.5 mphPartly Cloudy
5:53 PM52.0 °F17.1 °F25 %30.20 in10.0 miNW (310°)3.5 mphClear
6:53 PM54.0 °F18.0 °F24 %30.20 in10.0 miNorth (350°)4.6 mphPartly Cloudy
7:53 PM48.0 °F19.0 °F32 %30.21 in10.0 miNW (310°)8.1 mphScattered Clouds
8:53 PM45.0 °F19.9 °F37 %30.21 in10.0 miNW (320°)4.6 mphClear
9:53 PM39.9 °F19.9 °F45 %30.23 in10.0 miNW (320°)4.6 mphClear
10:53 PM37.9 °F19.9 °F48 %30.22 in10.0 miCalmClear
11:53 PM36.0 °F21.0 °F55 %30.22 in10.0 miCalmClear
Hourly data recorded from KYIP, located miles away from Belleville, Michigan







STORIES FROM OUR PARTNERS